Location: ČR
(50.0000°N, 15.0000°E)
Time: 16:43:25
(UTC+01:00)

Courier 1B - Pass Details

Date: 17 February 2026
Orbit: 962 x 1208 km, 28.3° (Epoch: 16 March)

Event Time Altitude Azimuth Distance (km) Brightness Sun altitude
Rises 22:42:22 0° 237° (WSW) 4,037 - -47.4°
Reaches altitude 10° 22:47:13 10° 211° (SSW) 3,111 - -47.8°
Maximum altitude 22:50:12 13° 188° (S) 2,932 - -48.0°
Drops below altitude 10° 22:53:12 10° 165° (SSE) 3,135 - -48.3°
Sets 22:58:08 0° 139° (SE) 4,101 - -48.7°
